Skip Page Navigation
NASA JPL Caltech
NASA Logo - Jet Propulsion Laboratory + View the NASA Portal
+ Center for Near-Earth Object Studies
JPL Home Earth Solar System Stars & Galaxies Technology
JPL Solar System Dynamics
BODIES ORBITS EPHEMERIDES TOOLS PHYSICAL DATA DISCOVERY FAQ SITE MAP
IMPORTANT: The SSD Announcement email list is now available. Major changes are coming in the near future, including possible hostname and/or URL changes. To be notified of such changes, subscribe to this email list.

Please visit this page for more details.


JPL Small-Body Database Browser
Search: [ help ]  
852 Wladilena (A916 GM)
Classification: Main-belt Asteroid          SPK-ID: 2000852
Ephemeris | Orbit Diagram | Orbital Elements | Mission Design | Physical Parameters | Discovery Circumstances ]

[ show orbit diagram ]
Orbital Elements at Epoch 2458600.5 (2019-Apr-27.0) TDB
Reference: JPL 33 (heliocentric ecliptic J2000)
 Element Value Uncertainty (1-sigma)   Units 
e .274149634549028 4.6021e-08  
a 2.362703428490527 9.1643e-09 au
q 1.714969147022114 1.0889e-07 au
i 23.01458636405525 5.4845e-06 deg
node 27.29992301765235 1.2971e-05 deg
peri 282.2455368847833 1.6244e-05 deg
M 59.10872805041173 1.3923e-05 deg
tp 2458382.698253822403
(2018-Sep-21.19825382)
5.0639e-05 TDB
period 1326.515240812879
3.63
7.7178e-06
2.113e-08
d
yr
n .2713877601431812 1.579e-09 deg/d
Q 3.01043770995894 1.1677e-08 au
  Orbit Determination Parameters
   # obs. used (total)      1933  
   data-arc span      35008 days (95.85 yr)  
   first obs. used      1923-03-24  
   last obs. used      2019-01-27  
   planetary ephem.      DE431  
   SB-pert. ephem.      SB431-N16  
   condition code      0  
   norm. resid. RMS      .43892  
   source      ORB  
   producer      Otto Matic  
   solution date      2019-May-29 19:15:01  

Additional Information
 Earth MOID = .850634 au 
 Jupiter MOID = 2.70331 au 
 T_jup = 3.395 
[ show covariance matrix ]

Ephemeris | Orbit Diagram | Orbital Elements | Mission Design | Physical Parameters | Discovery Circumstances ]

Physical Parameter Table
Parameter Symbol Value Units Sigma Reference Notes
absolute magnitude H 10.0   n/a MPO431501  
diameter diameter 26.541 km 0.155 urn:nasa:pds:neowise_diameters_albedos::2.0[mainbelt] (http://adsabs.harvard.edu/abs/2014ApJ...791..121M)  
rotation period rot_per 4.6134 h n/a LCDB (Rev. 2019-January); Warner et al., 2009 Published Reference List:
[Tedesco, E.F. (1979) PhD Dissertation, New. Mex. State Univ. 280pp.]
[Harris, A.W.; Young, J.W.; Bowell, E.; Tholen, D.J. (1999) Icarus 142, 173-201.]
[Kiss, L.L.; Szabo, G.; Sarneczky, K. (1999) Astron. Astrophys. Suppl. Ser. 140, 21-28.]
[Behrend, R. (2010) Observatoire de Geneve web site, http://obswww.unige.ch/~behrend/page_cou.html]
[Polishook, D. (2012) Minor Planet Bull. 39, 242-244.]
[Hanus, J.; Durech, J.; Broz, M.; Marciniak, A.; et al. (2013) Astron. Astrophys. 551, A67.]
[Klinglesmith III, D.A.; Hanowell, J.; Risley, E.; Janek, T.; et al. (2013) Minor Planet Bull. 40, 154-156.]
[Warner, B.D. (2014) Minor Planet Bull. 41, 144-155.]
[Hanus, J.; Delbo, M.; Durech, J.; Ali-Lagoa, V. (2018) Icarus 309, 297-337.]
[Gonzalez, L.; Bentz, M.C.; Paredes, L. (2019) Minor Planet Bull. 46, 8-9.]
geometric albedo albedo 0.225   0.028 urn:nasa:pds:neowise_diameters_albedos::2.0[mainbelt] (http://adsabs.harvard.edu/abs/2014ApJ...791..121M)  

852 Wladilena (A916 GM)          Discovered 1916-Apr-02 by Belyavskij, S. at Simeis
Discovered at Simeis during the First World War while Simeis was not in communication with the Rechen-Institut for long periods of time were given provisional designations containing the Greek letter SIGMA. These are here abbreviated S.
Reference: DISCOVERY.DBLast Updated: 2003-08-29

Alternate Designations
 A916 GM = A913 SB = A924 WJ 
Ephemeris | Orbit Diagram | Orbital Elements | Mission Design | Physical Parameters | Discovery Circumstances ]
ABOUT SSD CREDITS/AWARDS PRIVACY/COPYRIGHT GLOSSARY LINKS
FirstGov 2019-Oct-21 01:37 UT
(server date/time)  
NASA Home Page
Site Manager:   Ryan S. Park
Webmaster  Alan B. Chamberlin